Location: Unspecified
(0.0000°N, 0.0000°E)
Time: 23:18:10
(UTC+00:00)

A-11 Canister half - Pass Details

Date: 13 February 2023
Orbit: 1526 x 1682 km, 47.3° (Epoch: 29 March)

Event Time Altitude Azimuth Distance (km) Brightness Sun altitude
Rises 00:59:25 0° 235° (SW) 4,821 - -72.5°
Reaches altitude 10° 01:02:47 10° 241° (WSW) 3,811 - -71.9°
Maximum altitude 01:11:43 43° 310° (NW) 2,075 - -70.4°
Drops below altitude 10° 01:20:26 10° 19° (NNE) 3,702 - -68.8°
Sets 01:23:41 0° 26° (NNE) 4,672 - -68.1°
